Location: Observatorio Las Palmas
(29.0667°N, 110.9333°W)
Time: 03:20:44
(UTC-07:00)

HST - Visible Passes

Search period start: 24 October 2014 00:00
Search period end: 03 November 2014 00:00
Orbit: 546 x 550 km, 28.5° (Epoch: 23 October)

Date Brightness Start Highest point End Pass type
(mag) Time Alt. Az. Time Alt. Az. Time Alt. Az.
24 Oct 1.6 19:29:42 10° WSW 19:33:03 42° SSW 19:33:03 42° SSW visible
25 Oct 1.1 19:22:21 10° WSW 19:26:16 56° S 19:26:16 56° S visible
26 Oct 0.8 19:15:01 10° WSW 19:19:11 66° S 19:19:27 64° SE visible
27 Oct 0.7 19:07:43 10° WSW 19:11:54 75° S 19:12:36 58° ESE visible
28 Oct 0.7 19:00:26 10° W 19:04:38 80° S 19:05:43 48° E visible
29 Oct 0.7 18:53:10 10° W 18:57:21 84° S 18:58:50 39° E visible
30 Oct 0.7 18:45:53 10° W 18:50:05 84° S 18:51:58 32° E visible
30 Oct 4.1 20:27:21 10° W 20:27:30 11° W 20:27:30 11° W visible
31 Oct 0.8 18:38:36 10° W 18:42:47 81° S 18:45:06 26° E visible
31 Oct 3.9 20:20:06 10° W 20:20:39 13° W 20:20:39 13° W visible
01 Nov 0.9 18:31:18 10° W 18:35:29 76° S 18:38:17 20° ESE visible
01 Nov 3.7 20:12:54 10° W 20:13:50 16° W 20:13:50 16° W visible
02 Nov 1.0 18:24:00 10° W 18:28:10 68° S 18:31:32 15° ESE visible
02 Nov 3.5 20:05:44 10° W 20:07:05 18° WSW 20:07:05 18° WSW visible
